LAN8059 FAOR-SBGR

Flight info

Callsign LAN8059
Flight time N/A
Altitude 30000
Route RAGUL1D RAGUL UZ6 AVUSA UQ11 OKTEL DCT 29S010E 30S000E/N0494F320 30S010W 29S020W 27S030W/N0485F340 DCT ATORO DCT EDMUS
Aircraft A346/H-SDE2E3FGHIJ3J4J5M1RWXY/LB1D1

Departure

Time N/A
Airport O.R. Tambo International Airport (FAOR)

Arrival

Time 2026-05-07 06:55
Airport São Paulo/Guarulhos–Governor André Franco Montoro International Airport (SBGR)
Time Latitude Longitude Altitude Speed Heading
2026-05-07 06:30 -23.37310 -44.80030 25112 ft 467 kts 285°
2026-05-07 06:30 -23.36264 -44.83376 24860 ft 466 kts 285°
2026-05-07 06:30 -23.35223 -44.86702 24610 ft 464 kts 286°
2026-05-07 06:31 -23.34187 -44.90011 24362 ft 462 kts 286°
2026-05-07 06:31 -23.33153 -44.93310 24113 ft 461 kts 286°
2026-05-07 06:31 -23.32121 -44.96602 23866 ft 460 kts 286°
2026-05-07 06:31 -23.31093 -44.99877 23618 ft 458 kts 286°
2026-05-07 06:32 -23.30067 -45.03147 23372 ft 457 kts 286°
2026-05-07 06:32 -23.29041 -45.06408 23128 ft 456 kts 286°
2026-05-07 06:32 -23.28020 -45.09658 22880 ft 455 kts 286°
2026-05-07 06:32 -23.27000 -45.12898 22634 ft 453 kts 287°
2026-05-07 06:33 -23.25986 -45.16120 22393 ft 451 kts 287°
2026-05-07 06:33 -23.24974 -45.19335 22145 ft 450 kts 287°
2026-05-07 06:33 -23.23965 -45.22541 21898 ft 448 kts 287°
2026-05-07 06:33 -23.22959 -45.25734 21652 ft 447 kts 287°
2026-05-07 06:34 -23.21954 -45.28915 21409 ft 446 kts 287°
2026-05-07 06:34 -23.20951 -45.32091 21166 ft 445 kts 287°
2026-05-07 06:34 -23.19988 -45.35271 20913 ft 442 kts 283°
2026-05-07 06:34 -23.19513 -45.38546 20665 ft 438 kts 271°
2026-05-07 06:35 -23.19630 -45.41825 20423 ft 434 kts 260°
2026-05-07 06:35 -23.20239 -45.45017 20189 ft 432 kts 255°
2026-05-07 06:35 -23.20971 -45.48167 19951 ft 431 kts 254°
2026-05-07 06:35 -23.21705 -45.51316 19708 ft 430 kts 254°
2026-05-07 06:36 -23.22424 -45.54460 19466 ft 429 kts 254°
2026-05-07 06:36 -23.23223 -45.57577 19229 ft 428 kts 252°
2026-05-07 06:36 -23.24073 -45.60679 18987 ft 427 kts 252°
2026-05-07 06:36 -23.24926 -45.63760 18743 ft 426 kts 252°
2026-05-07 06:37 -23.25781 -45.66847 18480 ft 426 kts 252°
2026-05-07 06:37 -23.26633 -45.69924 18136 ft 424 kts 252°
2026-05-07 06:37 -23.27480 -45.72989 17725 ft 421 kts 252°
2026-05-07 06:37 -23.28316 -45.76020 17293 ft 418 kts 252°
2026-05-07 06:38 -23.29145 -45.79025 16854 ft 414 kts 252°
2026-05-07 06:38 -23.29966 -45.82003 16409 ft 411 kts 252°
2026-05-07 06:38 -23.30781 -45.84962 15966 ft 408 kts 252°
2026-05-07 06:38 -23.31587 -45.87899 15527 ft 405 kts 252°
2026-05-07 06:39 -23.32388 -45.90816 15089 ft 402 kts 252°
2026-05-07 06:39 -23.33208 -45.93743 14960 ft 409 kts 252°
2026-05-07 06:39 -23.34049 -45.96710 14974 ft 411 kts 252°
2026-05-07 06:39 -23.34892 -45.99682 14971 ft 411 kts 252°
2026-05-07 06:40 -23.35733 -46.02653 14993 ft 412 kts 252°
2026-05-07 06:40 -23.36575 -46.05628 15035 ft 412 kts 252°
2026-05-07 06:40 -23.37417 -46.08602 15055 ft 412 kts 252°
2026-05-07 06:40 -23.38259 -46.11579 15066 ft 412 kts 252°
2026-05-07 06:41 -23.39100 -46.14557 15079 ft 412 kts 252°
2026-05-07 06:41 -23.39942 -46.17538 15098 ft 412 kts 252°
2026-05-07 06:41 -23.40784 -46.20524 15091 ft 412 kts 252°
2026-05-07 06:41 -23.41623 -46.23506 14965 ft 413 kts 252°
2026-05-07 06:42 -23.42461 -46.26485 14463 ft 411 kts 253°
2026-05-07 06:42 -23.42974 -46.29507 14157 ft 406 kts 271°
2026-05-07 06:42 -23.42399 -46.32494 14146 ft 406 kts 293°
2026-05-07 06:42 -23.40943 -46.35131 14168 ft 406 kts 306°
2026-05-07 06:43 -23.39334 -46.37657 14164 ft 407 kts 304°
2026-05-07 06:43 -23.37749 -46.40209 14158 ft 407 kts 304°
2026-05-07 06:43 -23.36184 -46.42775 14152 ft 407 kts 304°
2026-05-07 06:43 -23.34630 -46.45340 14153 ft 404 kts 304°
2026-05-07 06:44 -23.33118 -46.47844 14153 ft 387 kts 303°
2026-05-07 06:44 -23.31670 -46.50241 14155 ft 371 kts 304°
2026-05-07 06:44 -23.30286 -46.52531 14146 ft 355 kts 304°
2026-05-07 06:44 -23.28957 -46.54731 14150 ft 340 kts 304°
2026-05-07 06:45 -23.27686 -46.56833 14146 ft 326 kts 304°
2026-05-07 06:45 -23.26552 -46.58946 14153 ft 323 kts 296°
2026-05-07 06:45 -23.25683 -46.61187 14157 ft 323 kts 290°
2026-05-07 06:45 -23.24960 -46.63500 14156 ft 324 kts 288°
2026-05-07 06:46 -23.24264 -46.65821 14168 ft 323 kts 289°
2026-05-07 06:46 -23.23606 -46.68163 14157 ft 321 kts 282°
2026-05-07 06:46 -23.23473 -46.70558 13844 ft 320 kts 264°
2026-05-07 06:46 -23.23864 -46.72933 13447 ft 320 kts 258°
2026-05-07 06:47 -23.24347 -46.75286 13079 ft 319 kts 257°
2026-05-07 06:47 -23.24821 -46.77631 12735 ft 317 kts 258°
2026-05-07 06:47 -23.25501 -46.79895 12372 ft 316 kts 242°
2026-05-07 06:47 -23.26764 -46.81827 12019 ft 313 kts 229°
2026-05-07 06:48 -23.28222 -46.83576 11677 ft 312 kts 227°
2026-05-07 06:48 -23.29818 -46.85150 11294 ft 310 kts 208°
2026-05-07 06:48 -23.31863 -46.85767 10898 ft 306 kts 176°
2026-05-07 06:48 -23.33872 -46.85178 10502 ft 299 kts 145°
2026-05-07 06:49 -23.35281 -46.83591 10097 ft 291 kts 117°
2026-05-07 06:49 -23.36252 -46.81666 9740 ft 290 kts 116°
2026-05-07 06:49 -23.37253 -46.79762 9387 ft 290 kts 117°
2026-05-07 06:49 -23.38297 -46.77897 9100 ft 287 kts 119°
2026-05-07 06:50 -23.39267 -46.76240 8794 ft 285 kts 120°
2026-05-07 06:50 -23.40340 -46.74444 8341 ft 280 kts 120°
2026-05-07 06:50 -23.41400 -46.72689 7906 ft 275 kts 120°
2026-05-07 06:50 -23.42445 -46.70963 7471 ft 271 kts 121°
2026-05-07 06:51 -23.43482 -46.69275 7022 ft 268 kts 121°
2026-05-07 06:51 -23.44532 -46.67605 6538 ft 266 kts 122°
2026-05-07 06:51 -23.45574 -46.65950 6057 ft 265 kts 122°
2026-05-07 06:51 -23.46608 -46.64304 5559 ft 262 kts 121°
2026-05-07 06:52 -23.47302 -46.62529 5056 ft 251 kts 93°
2026-05-07 06:52 -23.47186 -46.60720 4635 ft 231 kts 75°
2026-05-07 06:52 -23.46740 -46.59068 4399 ft 227 kts 70°
2026-05-07 06:52 -23.46245 -46.57429 4138 ft 226 kts 71°
2026-05-07 06:53 -23.45797 -46.55811 3819 ft 219 kts 72°
2026-05-07 06:53 -23.45381 -46.54247 3488 ft 210 kts 72°
2026-05-07 06:53 -23.44981 -46.52762 3220 ft 199 kts 73°
2026-05-07 06:53 -23.44597 -46.51353 2978 ft 188 kts 73°
2026-05-07 06:54 -23.44239 -46.50027 2746 ft 177 kts 73°
2026-05-07 06:54 -23.43908 -46.48780 2521 ft 165 kts 72°
2026-05-07 06:54 -23.43586 -46.47620 2485 ft 145 kts 76°
2026-05-07 06:54 -23.43356 -46.46767 2469 ft 83 kts 72°
2026-05-07 06:55 -23.43205 -46.46345 2462 ft 50 kts 49°
2026-05-07 06:55 -23.42976 -46.46146 2460 ft 28 kts
2026-05-07 06:55 -23.42856 -46.46167 2460 ft 16 kts 346°
2026-05-07 06:55 -23.42746 -46.46201 2460 ft 17 kts 343°
2026-05-07 06:56 -23.42631 -46.46249 2459 ft 14 kts 312°
2026-05-07 06:56 -23.42633 -46.46363 2458 ft 17 kts 253°
2026-05-07 06:56 -23.42677 -46.46503 2458 ft 21 kts 252°
2026-05-07 06:56 -23.42723 -46.46668 2457 ft 24 kts 253°
2026-05-07 06:57 -23.42772 -46.46844 2457 ft 24 kts 254°
2026-05-07 06:57 -23.42819 -46.47023 2457 ft 24 kts 255°
2026-05-07 06:57 -23.42866 -46.47211 2458 ft 27 kts 256°
2026-05-07 06:57 -23.42914 -46.47397 2459 ft 20 kts 251°
2026-05-07 06:58 -23.42892 -46.47487 2458 ft 12 kts 324°
2026-05-07 06:58 -23.42816 -46.47515 2457 ft 10 kts
2026-05-07 06:58 -23.42774 -46.47464 2456 ft 7 kts 68°
2026-05-07 06:58 -23.42763 -46.47433 2456 ft 3 kts 72°
2026-05-07 06:59 -23.42763 -46.47432 2456 ft 0 kts 72°